Other Public Products
Issued by NWS Grand Forks, ND

Home | Current Version | Previous Version | Graphics & Text | Print | Product List | Glossary On
Versions: 1 2 3 4 5 6 7 8 9 10 11 12 13 14 15 16 17 18 19 20 21 22 23 24 25 26 27 28 29 30 31 32 33 34 35 36 37 38 39 40 41 42 43 44 45 46 47 48 49 50
000
FPUS83 KFGF 240110
OPUFGF
PRAIRIE TO PINES WEATHER ROUNDUP
NATIONAL WEATHER SERVICE EASTERN NORTH DAKOTA/GRAND FORKS ND
800 PM CDT MON MAY 23 2016

 **SATELLITE DATA USED TO AUGMENT SKY COVER AT AUTOMATED STATIONS**
 *****  WEATHER ACROSS EASTERN NORTH DAKOTA  *****

CITY           SKY/WX    TMP DP  RH WIND       PRES   REMARKS
GRAND FORKS    PTCLDY    77  52  41 SW5       29.64S
GRAND FORKS AF CLEAR     76  53  45 SW5       29.65S
GRAND CITY NWS   N/A     75 N/A N/A SW5         N/A
BUXTON           N/A     80  45  28 S2          N/A
DEVILS LAKE    MOSUNNY   74  43  32 W9        29.67S
FARGO          CLOUDY    76  47  35 NE8       29.66F
WAHPETON ARPT  CLOUDY    77  46  33 S6        29.67R
$$

 *****  WEATHER ACROSS CENTRAL AND WESTERN NORTH DAKOTA  *****

CITY           SKY/WX    TMP DP  RH WIND       PRES   REMARKS
JAMESTOWN      SUNNY     71  51  49 S7        29.66S
BISMARCK       SUNNY     71  39  31 W7        29.68R
MINOT          TSTM      69  40  34 NW6       29.66R
MINOT AFB      PTSUNNY   71  36  27 W15       29.64R
GARRISON         N/A     65  41  41 S24G40    29.70R
WILLISTON      CLOUDY    68  36  30 W17G25    29.68R
DICKINSON      MOSUNNY   61  41  47 SE8       29.70S
HETTINGER      PTSUNNY   67  37  33 NE10      29.73R
$$

 *****  OTHER OBSERVATIONS NORTHEAST NORTH DAKOTA  *****

CITY           SKY/WX    TMP DP  RH WIND       PRES   REMARKS
WALHALLA       FAIR      77  37  24 SW8       29.64S
LANGDON        FAIR      68  39  34 W21       29.68R
CAVALIER       FAIR      77  39  25 SW7       29.64S
GRAFTON        DRIZZLE   70  48  46 W26G41    29.68R
CANDO          NOT AVBL
FORT TOTTEN      N/A     75  36  24 NW3       29.95
ROLLA          FAIR      68  36  30 NW9       29.68S
RUGBY          FAIR      73  32  21 W12G30    29.66R
 ***** THE ABOVE OBSERVATIONS ARE NON NWS ARE NOT QUALITY
        CONTROLLED AND MAY MIS-REPORT RAIN FOR SNOW...
$$

 *****  OTHER OBSERVATIONS SOUTHEAST NORTH DAKOTA *****

CITY           SKY/WX    TMP DP  RH WIND       PRES   REMARKS
COOPERSTOWN    NOT AVBL
VALLEY CITY    FAIR      73  54  49 S6        29.69F
OAKES            N/A    N/A N/A N/A MISG        N/A
GWINNER        FAIR      79  52  38 S8        29.68S
SHEYENNE NWR     N/A     79  51  37 SW2       29.95S
BUFFALO          N/A     80  39  23 CALM        N/A
WYNDMERE         N/A     81  50  34 SW7         N/A
 ***** THE ABOVE OBSERVATIONS ARE NON NWS ARE NOT QUALITY
       CONTROLLED AND MAY MIS-REPORT RAIN FOR SNOW...
$$

  *****  WEATHER ACROSS NORTHERN MINNESOTA  *****

CITY           SKY/WX    TMP DP  RH WIND       PRES   REMARKS
FLAG ISLAND    MOCLDY    66  54  63 S7        29.67R
WARROAD        MOCLDY    77  48  36 SW7       29.69R
ROSEAU         MOCLDY    77  46  33 W5        29.68S
HALLOCK        CLEAR     77  43  29 S6        29.65R
THF RVR FALLS  PTCLDY    75  50  41 CALM      29.69F
HALSTAD        NOT AVBL
FOSSTON        CLOUDY    75  52  43 CALM      29.70S
BAUDETTE       MOCLDY    73  44  35 W5        29.68S
WASKISH        MOCLDY    70  55  60 SW3       29.70S
CROOKSTON      CLOUDY    77  50  38 CALM      29.67F
$$
  *****  WEATHER ACROSS CENTRAL AND WEST MINNESOTA  *****

CITY           SKY/WX    TMP DP  RH WIND       PRES   REMARKS
BEMIDJI        MOCLDY    73  51  45 NW3       29.70S
PARK RAPIDS    CLOUDY    75  54  47 S5        29.69S
WADENA         CLOUDY    73  54  49 CALM      29.69S
DETROIT LAKES  PTCLDY    75  45  33 CALM      29.69F
MOORHEAD       CLOUDY    75  43  31 N13       29.67S
FERGUS FALLS   CLOUDY    75  52  43 SW6       29.64R
ELBOW LAKE     FAIR      75  53  45 W7        29.69R
MORRIS MN      PTCLDY    73  55  53 SW7       29.68S
STAPLES        CLOUDY    70  59  68 S8        29.71S
WHEATON        CLOUDY    79  57  47 S3        29.69S
$$
  *****  WEATHER ELSEWHERE ACROSS MINNESOTA  *****

CITY           SKY/WX    TMP DP  RH WIND       PRES   REMARKS
DULUTH         LGT RAIN  70  59  68 SW9       29.76R
INTRNTL FALLS  CLOUDY    70  55  59 W3        29.69R
ELY            CLOUDY    66  54  63 NW6       29.74R
CLOQUET        CLOUDY    66  59  77 S5        29.75R
BRAINERD       CLOUDY    66  62  87 SE7       29.73R
HIBBING        CLOUDY    70  58  65 S6        29.72R
ALEXANDRIA     LGT RAIN  74  56  53 S6        29.71R
SAINT CLOUD    CLOUDY    66  64  93 E6        29.72F
MINNEAPOLIS    CLOUDY    74  58  57 S15G23    29.74S
$$

  *****  WEATHER ACROSS SOUTH DAKOTA  *****

CITY           SKY/WX    TMP DP  RH WIND       PRES   REMARKS
SIOUX FALLS    CLOUDY    73  59  61 CALM      29.74S
BROOKINGS      CLOUDY    71  59  65 SW6       29.74S
WATERTOWN      CLOUDY    73  55  53 S10       29.72S
HURON          CLEAR     72  53  51 SW5       29.70R
SISSETON         N/A     76  53  44 W8        29.67S
ABERDEEN       PTCLDY    77  49  37 S7        29.68S
MITCHELL       CLEAR     75  58  55 S7        29.72R
PIERRE         SUNNY     74  46  36 VRB7      29.67S
MOBRIDGE       SUNNY     74  50  42 SE9       29.65F
RAPID CITY     SUNNY     67  29  24 W9        29.71R
$$

  *****  SOME WEATHER IN NEARBY STATES *****

CITY           SKY/WX    TMP DP  RH WIND       PRES   REMARKS
GLASGOW MT     CLOUDY    58  41  53 W13       29.70R
GREAT FALLS MT LGT RAIN  44  41  89 N8        29.82R
CHEYENNE WY    MOSUNNY   58  38  47 S13G21    29.90S
SCOTTSBLUFF NE PTSUNNY   55  46  71 SE14      29.87F
OMAHA NE       CLOUDY    71  63  75 S9        29.77S
DES MOINES IA  CLOUDY    72  59  63 SW3       29.83R
DAVENPORT IA   CLOUDY    76  46  34 S9        29.87F
CHICAGO IL     MOCLDY    74  37  26 SE12      29.91S
EAU CLAIRE WI  CLOUDY    71  65  81 CALM      29.76F
LA CROSSE WI   PTCLDY    74  55  51 SW16      29.80F
$$

  *****  SOME NATIONAL WEATHER *****

CITY           SKY/WX    TMP DP  RH WIND       PRES   REMARKS
LA GUARDIA NY  MOCLDY    65  48  54 S9        29.89R
RALEIGH NC     PTCLDY    58  54  86 CALM      30.01R
ATLANTA GA     PTCLDY    74  49  41 CALM      29.99R
NEW ORLEANS LA MOCLDY    81  61  50 SE8       29.94R
OKLAHOMA CITY  MOCLDY    71  69  93 SE14G22   29.81F
ALBUQUERQUE NM MOSUNNY   82  11   7 SW17      29.82S
SALT LAKE CITY PTSUNNY   69  26  20 N7        29.81F
LOS ANGELES CA MOSUNNY   63  54  72 W16       29.88S
BOISE ID       SUNNY     68  32  26 NW7       29.80F
SEATTLE WA     CLOUDY    63  47  55 NE8       29.94S
$$

*** WEATHER ACROSS MANITOBA...SASKATCHEWAN AND ONTARIO ***
                ***ONTARIO***

CITY           SKY/WX    TMP DP  RH WIND       PRES   REMARKS
GERALDTON      NOT AVBL
THUNDER BAY    MOCLDY    73  57  56 SW5       29.68R
SIOUX LOOKOUT  MOCLDY    68  54  60 W5        29.69R
TORONTO        PTCLDY    72  43  35 VRB2      29.93S
BIG TROUT LK   LGT RAIN  39  39 100 N8G22     29.64R
PICKLE LAKE    MOCLDY    66  52  59 W16G24    29.63R
DRYDEN         CLEAR     70  46  43 W5        29.69R
KENORA         CLOUDY    72  50  46 S5        29.69R
$$
                *** MANITOBA***

CITY           SKY/WX    TMP DP  RH WIND       PRES   REMARKS
BRANDON        PTSUNNY   73  36  25 W13       29.63R
DAUPHIN        PTSUNNY   70  41  35 W6        29.61R
ISLAND LAKE    CLOUDY    43  43 100 NE10G20   29.75R
PILOT MOUND      N/A     68  36  30 W9          N/A
THE PAS        CLOUDY    48  45  87 NE9G17    29.72R
THOMPSON       PTSUNNY   43  37  81 VRB2      29.83R
WINNIPEG       MOSUNNY   75  43  31 SW10      29.62R
LYNN LAKE      CLOUDY    52  39  62 SE8       29.83R
CHURCHILL      CLOUDY    28  23  80 N15G21    29.98R WCI  17
GILLAM         DRIZZLE   36  34  93 NE21      29.88R
$$
                ***SASKATCHEWAN***

CITY           SKY/WX    TMP DP  RH WIND       PRES   REMARKS
ESTEVAN        PTSUNNY   64  39  39 SW21G31   29.65R
KINDERSLEY     CLOUDY    50  45  81 N15       29.64R
LLOYDMINSTER   CLOUDY    54  45  71 NE9G17    29.71R
PRINCE ALBERT  NOT AVBL
REGINA         PTSUNNY   55  46  71 W5        29.60R
YORKTON        CLOUDY    64  41  42 S3        29.61R   C1F1C2F2C3F3C4F4C5F5C6F6C7F7C8F8C9F9CaFaCbFbCcFcCdFdCe!



USA.gov is the U.S. government's official web portal to all federal, state and local government web resources and services.